OBJECT K, 59809

Orbit data source: Space-Track

You're viewing an Uncataloged Satellite

Recently launched and/or uncataloged satellites may have evolving metadata. Metadata may include but not limited to: Owner, Maufacturer, Bus, Motor, and Mission.

OBJECT K, 59809 is a satellite owned by Sitronics (CIS) in SSO that was launched on Thu, 16 May 2024 UTC via a SOYUZ-2-1B launch vehicle from the Plesetsk Missile And Space Complex (PKMTR). Unknown objects in Earth's orbit typically refer to objects detected orbiting the Earth but have not yet been identified or cataloged. These objects could be anything from previously untracked satellites, spent rocket stages, debris from satellite collisions, or even natural meteoroids temporarily captured by Earth's gravity.

Loading next visibility...
Identifier
59809, 2024-092K
Orbit
SSO
Last TLE update
13 hours ago
Origin
Manufacturer
Sputniks
Mission
Operational spacecraft
Bus & Motor
CUBESAT 3U?, Unknown motor
Mass
3 kg wet, 3 kg dry
Launch date (UTC)
2024-05-16 (1 year ago)
Launch vehicle
SOYUZ-2-1B
Launch site
Plesetsk Missile And Space Complex (PKMTR)
Object type
Unknown
Shape & HBR
Unknown
Radar Cross Section
Small (<0.1 m²)

Expand to show TLE details & history

TLE from 13 hours ago
0 OBJECT K
1 59809U 24092K   25181.87232073  .00008674  00000-0  37477-3 0  9993
2 59809  97.6235 300.2828 0008859 312.2263  47.8220 15.22702203 61540
Epoch: 2025-06-30T20:56Z
TLE epoch observation values (Epoch: 2025-06-30T20:56:08.511Z)
Latitude
-0.00005°
Longitude
67.07145°
Altitude
496.694 km
Speed
7.619 km/s
True Right ascension
20h 01m 07s
True Declination
0° 00' 00"
Sunlit
Object was in full shadow at epoch
Visualization orbit readout
Latitude
7.73338°
Longitude
66.57048°
Altitude
496.802 km
Speed
7.619 km/s
Apparent Right ascension
17h 36m 07s
Apparent Declination
-49° 41' 15"
Sunlit
Object is in full shadow
Visualization observer readout
Local Sidereal Time
21:13:30
Azimuth
212.45° SW
Elevation
-11.542°
Doppler factor
1
Orbital elements
Apogee altitude
500.754 km
Perigee altitude
488.577 km
Semi-major axis
6,872.803 km
Eccentricity
0.00089
Inclination
97.6235°
RAAN
300.2828°
Arg. of periapsis
312.2263°
True anomaly
Unknown
Mean anomaly
47.822°
Eccentric anomaly
Unknown
Mean motion
3.80928 °/min
Orbital period
94.51 mins
BSTAR
0.00037477
Loading maneuver chart data...
Loading SW <> Apogee altitude chart data...
Loading historical data...
Loading historical data...
Loading historical data...
Loading historical data...
Loading historical data...
Loading historical data...
Loading historical data...

OBJECT K Visibility forecast

Observer location: undefined°, undefined°

Span
Click to sort rows by Start time (UTC) header in descending order
Start Az.
Max El. time (UTC)
Max El. Az.
Max El.
End time (UTC)
End Az.
5 mins2025-07-01 21:10:12.393Z345.882° N2025-07-01 21:12:12.393Z275.066° WNW35.173°2025-07-01 21:15:12.393Z214.408° SW
6 mins2025-07-02 07:46:12.393Z153.109° SSE2025-07-02 07:48:12.393Z115.889° SE39.97°2025-07-02 07:52:12.393Z354.427° N
|